Find Telstar 5

NORAD ID: 24812 Int'l Des: 1997-026 Owner: LSKY Country: US operational
HEOCIRCULAR

Live-Position

3D-Globus wird geladen...

Über Telstar 5

Beschreibung wird geladen...

Nächste Überflüge

Passes for default location (London). Set your location on the main map for personalized predictions.

Höhenverlauf

Loading altitude history...

Zweizeiliger Elementsatz

1 24812U 97026A 26122.48993902 -.00000158 00000-0 00000+0 0 9992
2 24812 7.2803 68.3534 0005541 16.6864 62.9638 0.99090118105775
Epoch: 2. Mai 2026 • Age: 4 hours

Aktueller Status

Höhe 36134.5 km
Geschwindigkeit 3.06 km/s
Subsatellitenpunkt 4.30°N, 110.73°E
Startdatum 24. Mai 1997
Alter 28.9 years
Typ other

Technische Details

Klassifizierung Payload
Masse 3900.00 kg
Trockenmasse 1469.00 kg
Gesamtmasse 3900.00 kg
Länge 4.00 m
Durchmesser 2.20 m
Spannweite 30.00 m
Form Box + 2 Pan
Hersteller LOR
Bus-Typ FS-1300
Phasenstatus Unknown Active Status
Besitzer/Staat LSKY/US

Most Searched